• Join FlightAware (Why Join?)
  • Login
  • US Flag 
11:40PM EDT


 

Airport Tracker/Info


-or-


 

Live Flight TrackerFlight Track Log ✈ N65537 ✈ 25-Feb-2012 ✈ KLGB - KVNY

Flight Track Log - Related Links

Times and Time Zones

All times are in EST time to prevent confusion due to time zone crossing. See the N65537 flight status page for this flight to view local times or setup timezone preferences in your user account.

Time Position Orientation Groundspeed Altitude Reporting Facility
EST Latitude Longitude Course Direction KTS MPH feet Rate Location/Type
01:57PM 33.8167 -118.1667 270° West 74 85 900  Level Southern California TRACON
01:58PM 33.8167 -118.2000 270° West 73 84 1,800 780 Climbing Southern California TRACON
01:59PM 33.8167 -118.2167 270° West 76 87 2,500 660 Climbing Southern California TRACON
02:00PM 33.8167 -118.2500 320° Northwest 90 104 3,200 780 Climbing Southern California TRACON
02:01PM 33.8333 -118.2667 270° West 66 76 4,000 660 Climbing Southern California TRACON
02:02PM 33.8333 -118.3000 360° North 80 92 4,600 540 Climbing Southern California TRACON
02:03PM 33.8500 -118.3000 320° Northwest 89 102 5,100 240 Climbing Southern California TRACON
02:04PM 33.8667 -118.3167 320° Northwest 106 122 5,100 -60 Level Southern California TRACON
02:05PM 33.9000 -118.3500 301° West 103 119 5,000 -60 Descending Southern California TRACON
02:06PM 33.9167 -118.3833 320° Northwest 98 113 5,000  Level Southern California TRACON
02:07PM 33.9333 -118.4000 320° Northwest 100 115 5,000  Level Southern California TRACON
02:08PM 33.9500 -118.4167 337° Northwest 100 115 5,000  Level Southern California TRACON
02:09PM 33.9833 -118.4333 320° Northwest 100 115 5,000  Level Southern California TRACON
02:10PM 34.0000 -118.4500 337° Northwest 103 119 5,000  Level Southern California TRACON
02:11PM 34.0333 -118.4667 301° West 101 116 5,000  Level Southern California TRACON
02:12PM 34.0500 -118.5000 320° Northwest 106 122 5,000  Level Southern California TRACON
02:13PM 34.0667 -118.5167 301° West 106 122 5,000  Level Southern California TRACON
02:14PM 34.0833 -118.5500 338° Northwest 106 122 5,000  Level Southern California TRACON
02:15PM 34.1167 -118.5667 320° Northwest 105 121 5,000  Level Southern California TRACON
02:16PM 34.1333 -118.5833 360° North 101 116 5,000  Level Southern California TRACON
02:17PM 34.1667 -118.5833 338° Northwest 105 121 5,000  Level Southern California TRACON
02:18PM 34.2000 -118.6000 360° North 106 122 5,000  Level Southern California TRACON
02:19PM 34.2167 -118.6000 360° North 108 124 5,000  Level Southern California TRACON
02:20PM 34.2500 -118.6000 360° North 107 123 5,000  Level Southern California TRACON
02:21PM 34.2833 -118.6000 22° Northeast 107 123 5,000  Level Southern California TRACON
02:22PM 34.3167 -118.5833 360° North 110 127 5,000  Level Southern California TRACON
02:23PM 34.3333 -118.5833 360° North 104 120 5,000  Level Southern California TRACON
02:24PM 34.3667 -118.5833 22° Northeast 102 117 5,000  Level Southern California TRACON
02:25PM 34.4000 -118.5667 360° North 102 117 5,000  Level Southern California TRACON
02:26PM 34.4167 -118.5667 59° Northeast 104 120 5,000  Level Southern California TRACON
02:27PM 34.4333 -118.5333 140° Southeast 118 136 5,000  Level Southern California TRACON
02:28PM 34.4000 -118.5000 180° South 124 143 5,000 -480 Level Southern California TRACON
02:30PM 34.3167 -118.5000 180° South 132 152 3,600 -780 Descending Southern California TRACON
02:31PM 34.2833 -118.5000 180° South 121 139 2,800 -840 Descending Southern California TRACON
02:32PM 34.2667 -118.5000 180° South 110 127 2,100 -780 Descending Southern California TRACON